EW1993 Weather Reports


Display with metric or nautical units.
time (UTC)temp
F
wind
direction
speed
MPH
gust
MPH
rain 1hr
in
rain 24hr
in
rain mn
in
humidity
%
barometer
mb
20220809172519 82 311 3.0 9.0 0.00 0.00 0.00 42 1026.3
20220809171020 83 277 4.0 9.0 0.00 0.00 0.00 42 1026.3
20220809164020 84 259 3.0 9.0 0.00 0.00 0.00 40 1026.4
20220809155518 85 267 3.0 10.0 0.00 0.00 0.00 40 1026.6
20220809154020 86 176 3.0 8.0 0.00 0.00 0.00 40 1026.7
20220809145520 85 285 3.0 10.0 0.00 0.00 0.00 42 1026.8
20220809142518 87 272 2.0 9.0 0.00 0.00 0.00 37 1027.0
20220809135517 86 114 2.0 9.0 0.00 0.00 0.00 38 1027.2
20220809132516 85 283 2.0 6.0 0.00 0.00 0.00 39 1027.4
20220809125515 83 139 2.0 8.0 0.00 0.00 0.00 45 1027.9
20220809122515 83 267 2.0 7.0 0.00 0.00 0.00 46 1028.1
20220809115513 83 272 2.0 6.0 0.00 0.00 0.00 45 1028.4
20220809112513 82 39 2.0 6.0 0.00 0.00 0.00 48 1028.6
20220809105511 80 251 2.0 7.0 0.00 0.00 0.00 49 1028.8
20220809102509 79 71 2.0 6.0 0.00 0.00 0.00 50 1029.1
20220809095511 77 148 2.0 6.0 0.00 0.00 0.00 53 1029.3
20220809092506 75 142 0.0 0.0 0.00 0.00 0.00 56 1029.3
20220809085455 73 154 0.0 0.0 0.00 0.00 0.00 62 1029.2
20220809082450 69 59 0.0 1.0 0.00 0.00 0.00 70 1029.1
20220809075448 65 93 0.0 0.0 0.00 0.00 0.00 81 1029.1
20220809072445 62 28 0.0 0.0 0.00 0.00 0.00 86 1029.1
20220809065436 60 325 0.0 0.0 0.00 0.00 0.00 90 1029.0
20220809062410 58 336 0.0 0.0 0.00 0.00 0.00 90 1028.7
20220809055345 58 318 0.0 1.0 0.00 0.00 0.00 89 1028.4
20220809052343 57 210 0.0 0.0 0.00 0.00 0.00 89 1028.3
20220809045329 57 210 0.0 0.0 0.00 0.00 0.00 87 1028.0
20220809042328 58 210 0.0 0.0 0.00 0.00 0.00 87 1028.1
20220809035330 59 217 0.0 0.0 0.00 0.00 0.00 85 1027.7
20220809032318 61 217 0.0 0.0 0.00 0.00 0.00 80 1027.7
20220809025315 62 217 0.0 0.0 0.00 0.00 0.00 77 1027.7
20220809022312 64 188 0.0 3.0 0.00 0.00 0.00 75 1027.7
20220809015241 65 190 0.0 4.0 0.00 0.00 0.00 76 1027.7
20220809012238 65 157 2.0 5.0 0.00 0.00 0.00 78 1027.6
20220809005236 66 119 2.0 6.0 0.00 0.00 0.00 80 1027.6
20220809002233 66 221 1.0 4.0 0.00 0.00 0.00 79 1027.6
20220808235235 67 216 2.0 8.0 0.00 0.00 0.00 75 1027.4
20220808232236 67 195 2.0 5.0 0.00 0.00 0.00 73 1027.2
20220808225230 68 136 2.0 6.0 0.00 0.00 0.00 71 1027.1
20220808222231 68 186 2.0 6.0 0.00 0.00 0.00 68 1026.9
20220808215231 68 180 2.0 5.0 0.00 0.00 0.00 65 1026.8
20220808212226 69 186 0.0 5.0 0.00 0.00 0.00 64 1026.9
20220808205226 70 164 1.0 4.0 0.00 0.00 0.00 60 1026.7
20220808202208 71 159 1.0 6.0 0.00 0.00 0.00 58 1026.5
20220808195157 72 165 2.0 7.0 0.00 0.00 0.00 56 1026.4
20220808192157 74 159 2.0 8.0 0.00 0.00 0.00 54 1026.1
20220808185200 75 183 3.0 7.0 0.00 0.00 0.00 52 1025.9
20220808182158 76 124 3.0 8.0 0.00 0.00 0.00 51 1025.9
20220808175158 77 203 2.0 9.0 0.00 0.00 0.00 49 1025.7